Pontiac, IL

7:20 AM CST on December 06, 2019 (GMT -0600)
Pontiac Municipal

Weather History for KPNT - November, 2019

Change the Weather History Date:

Sunday, November 17, 2019

  Actual Average Record
Temperature  
Mean Temperature 33 °F -  
Max Temperature 41 °F 49 °F 75 °F (2016)
Min Temperature 25 °F 33 °F 0 °F (1959)
Degree Days  
Heating Degree Days 32    
Moisture  
Dew Point 31 °F    
Average Humidity 90    
Maximum Humidity 99    
Minimum Humidity 73    
Precipitation  
Precipitation 0.06 in - - ()
Sea Level Pressure  
Sea Level Pressure 29.99 in    
Wind  
Wind Speed 6 mph ()    
Max Wind Speed 12 mph    
Max Gust Speed -    
Visibility 6.9 miles    
Events Rain    
Averages and records for this station are not official NWS values.
T = Trace of Precipitation, MM = Missing Value Source: Averaged Metar Reports

Daily Weather History Graph

Daily Weather History Graph

Search for Another Location

Airport or City:

Astronomy

Nov. 17, 2019 Rise Set
Actual Time 6:43 AM CST 4:34 PM CST
Civil Twilight 6:14 AM CST 5:04 PM CST
Nautical Twilight 5:41 AM CST 5:37 PM CST
Astronomical Twilight 5:08 AM CST 6:09 PM CST
Moon 9:10 PM CST (11/17) 11:30 AM CST (11/17)
Length of Visible Light 10h 49m
Length of Day
9h 50m
Waning Gibbous, 73% of the Moon is Illuminated
Nov 17
Waning Gibbous
Nov 19
Last Quarter
Nov 26
New
Dec 4
First Quarter
Dec 11
Full

Hourly Weather History & Observations

Time (CST) Temp. Windchill Dew Point Humidity Pressure Visibility Wind Dir Wind Speed Gust Speed Precip Events Conditions
12:15 AM 28.4 °F 19.7 °F 26.6 °F 93% 30.19 in 10.0 mi ESE 9.2 mph - N/A   Clear
12:35 AM 28.2 °F 21.0 °F 26.4 °F 93% 30.18 in 10.0 mi ESE 6.9 mph - N/A   Clear
12:55 AM 27.3 °F 20.9 °F 25.7 °F 94% 30.18 in 10.0 mi SE 5.8 mph - N/A   Clear
1:15 AM 27.0 °F 23.0 °F 25.5 °F 94% 30.18 in 10.0 mi SSE 3.5 mph - N/A   Clear
1:35 AM 25.7 °F 19.0 °F 24.4 °F 95% 30.18 in 10.0 mi South 5.8 mph - N/A   Clear
1:55 AM 26.2 °F 18.6 °F 25.2 °F 96% 30.17 in 10.0 mi ESE 6.9 mph - N/A   Clear
2:15 AM 26.6 °F 19.1 °F 25.3 °F 95% 30.16 in 10.0 mi ESE 6.9 mph - N/A   Clear
2:35 AM 26.6 °F 19.1 °F 25.3 °F 95% 30.15 in 10.0 mi ESE 6.9 mph - N/A   Clear
2:55 AM 26.4 °F 18.9 °F 25.2 °F 95% 30.15 in 10.0 mi ESE 6.9 mph - N/A   Clear
3:15 AM 26.6 °F 19.1 °F 25.5 °F 96% 30.15 in 10.0 mi ESE 6.9 mph - N/A   Clear
3:35 AM 25.9 °F 19.2 °F 24.6 °F 95% 30.14 in 10.0 mi East 5.8 mph - N/A   Clear
3:55 AM 26.1 °F 18.4 °F 24.8 °F 95% 30.13 in 10.0 mi ESE 6.9 mph - N/A   Clear
4:15 AM 26.2 °F 19.6 °F 24.8 °F 94% 30.13 in 10.0 mi SE 5.8 mph - N/A   Clear
4:35 AM 26.2 °F 18.6 °F 25.0 °F 95% 30.12 in 10.0 mi ESE 6.9 mph - N/A   Clear
4:55 AM 25.7 °F 19.0 °F 24.4 °F 95% 30.12 in 10.0 mi ESE 5.8 mph - N/A   Clear
5:15 AM 25.7 °F 17.1 °F 24.4 °F 95% 30.11 in 10.0 mi ESE 8.1 mph - N/A   Clear
5:35 AM 25.7 °F 18.0 °F 24.6 °F 96% 30.11 in 10.0 mi ESE 6.9 mph - N/A   Clear
5:50 AM 25.5 °F 17.8 °F 24.3 °F 95% 30.11 in 10.0 mi SE 6.9 mph - N/A   Clear
6:15 AM 25.9 °F 16.6 °F 24.8 °F 96% 30.09 in 10.0 mi ESE 9.2 mph - N/A   Clear
6:35 AM 27.1 °F 18.2 °F 25.9 °F 95% 30.09 in 7.0 mi SE 9.2 mph - N/A   Clear
6:55 AM 27.1 °F 18.9 °F 25.7 °F 94% 30.08 in 7.0 mi SE 8.1 mph - N/A   Clear
7:15 AM 27.5 °F 18.6 °F 26.4 °F 96% 30.08 in 7.0 mi SE 9.2 mph - N/A   Clear
7:35 AM 28.2 °F 18.9 °F 26.6 °F 94% 30.07 in 7.0 mi ESE 10.4 mph - N/A   Clear
7:55 AM 29.1 °F 20.6 °F 27.7 °F 94% 30.06 in 7.0 mi ESE 9.2 mph - N/A   Clear
8:15 AM 30.2 °F 21.9 °F 28.9 °F 95% 30.05 in 5.0 mi SE 9.2 mph - N/A   Clear
8:35 AM 31.8 °F 23.9 °F 30.2 °F 94% 30.04 in 7.0 mi SSE 9.2 mph - N/A   Scattered Clouds
8:55 AM 32.9 °F 27.5 °F 31.1 °F 93% 30.05 in 7.0 mi SSE 5.8 mph - N/A   Scattered Clouds
9:15 AM 33.8 °F 27.7 °F 31.1 °F 90% 30.04 in 7.0 mi SSE 6.9 mph - N/A   Scattered Clouds
9:35 AM 34.2 °F 29.0 °F 31.6 °F 90% 30.03 in 7.0 mi SSE 5.8 mph - N/A   Mostly Cloudy
9:55 AM 34.7 °F 27.5 °F 31.1 °F 87% 30.03 in 7.0 mi SSE 9.2 mph - N/A   Overcast
10:15 AM 34.9 °F 28.3 °F 31.5 °F 87% 30.03 in 7.0 mi SSE 8.1 mph - N/A   Overcast
10:35 AM 35.6 °F 28.6 °F 32.0 °F 87% 30.02 in 7.0 mi SSE 9.2 mph - N/A   Overcast
10:55 AM 36.0 °F 28.5 °F 32.0 °F 86% 30.01 in 7.0 mi South 10.4 mph - N/A   Mostly Cloudy
11:15 AM 36.5 °F 30.3 °F 32.0 °F 84% 30.00 in 7.0 mi South 8.1 mph - N/A   Scattered Clouds
11:35 AM 37.4 °F 30.8 °F 32.2 °F 81% 29.99 in 10.0 mi SSE 9.2 mph - N/A   Clear
11:55 AM 38.5 °F 31.1 °F 32.2 °F 78% 29.97 in 7.0 mi SSE 11.5 mph - N/A   Scattered Clouds
12:15 PM 40.1 °F 33.2 °F 32.9 °F 75% 29.95 in 10.0 mi South 11.5 mph - N/A   Clear
12:55 PM 40.5 °F 35.1 °F 32.7 °F 74% 29.93 in 10.0 mi SSE 8.1 mph - N/A   Scattered Clouds
1:15 PM 41.0 °F 35.8 °F 32.9 °F 73% 29.92 in 10.0 mi SE 8.1 mph - N/A   Scattered Clouds
1:35 PM 40.6 °F 34.3 °F 32.7 °F 73% 29.92 in 10.0 mi SSE 10.4 mph - N/A   Scattered Clouds
1:55 PM 40.3 °F 34.4 °F 32.4 °F 73% 29.92 in 10.0 mi South 9.2 mph - N/A   Overcast
2:15 PM 40.3 °F 34.9 °F 33.1 °F 75% 29.92 in 7.0 mi South 8.1 mph - N/A   Overcast
2:35 PM 40.3 °F 34.9 °F 33.4 °F 77% 29.91 in 7.0 mi SSE 8.1 mph - N/A   Overcast
2:55 PM 40.3 °F 34.4 °F 33.3 °F 76% 29.90 in 7.0 mi SE 9.2 mph - N/A   Overcast
3:15 PM 40.1 °F 35.3 °F 33.4 °F 77% 29.89 in 7.0 mi SSE 6.9 mph - N/A   Overcast
3:35 PM 39.7 °F 35.6 °F 33.6 °F 79% 29.89 in 7.0 mi SE 5.8 mph - N/A   Overcast
3:55 PM 39.6 °F 35.4 °F 34.0 °F 80% 29.89 in 7.0 mi SE 5.8 mph - N/A   Overcast
4:15 PM 39.6 °F 35.4 °F 34.0 °F 80% 29.89 in 7.0 mi South 5.8 mph - N/A   Overcast
4:35 PM 39.2 °F 35.0 °F 34.0 °F 82% 29.89 in 7.0 mi South 5.8 mph - N/A   Overcast
4:55 PM 39.2 °F 37.0 °F 34.3 °F 83% 29.89 in 7.0 mi South 3.5 mph - N/A   Overcast
5:15 PM 39.0 °F 34.8 °F 34.3 °F 83% 29.90 in 7.0 mi South 5.8 mph - N/A   Overcast
5:35 PM 38.8 °F 35.4 °F 34.9 °F 86% 29.90 in 7.0 mi South 4.6 mph - N/A   Light Drizzle
5:55 PM 38.5 °F 34.1 °F 35.4 °F 89% 29.90 in 5.0 mi South 5.8 mph - N/A   Light Drizzle
6:15 PM 38.3 °F - 36.0 °F 91% 29.90 in 4.0 mi Calm Calm - N/A Rain Light Rain
6:35 PM 38.3 °F 35.9 °F 36.5 °F 93% 29.90 in 4.0 mi SSW 3.5 mph - 0.01 in Rain Light Rain
6:55 PM 38.5 °F 36.1 °F 36.9 °F 94% 29.89 in 3.0 mi SSW 3.5 mph - 0.02 in Rain Light Rain
7:15 PM 38.3 °F 35.9 °F 37.4 °F 97% 29.88 in 3.0 mi SSE 3.5 mph - 0.01 in Rain Light Rain
7:35 PM 38.3 °F - 37.4 °F 97% 29.88 in 2.5 mi Calm Calm - 0.02 in Rain Light Rain
7:55 PM 38.3 °F - 37.6 °F 97% 29.88 in 2.5 mi Calm Calm - 0.03 in Rain Light Rain
8:15 PM 38.3 °F - 37.8 °F 98% 29.87 in 2.5 mi Calm Calm - N/A Rain Light Rain
8:35 PM 38.3 °F - 37.8 °F 98% 29.87 in 2.0 mi Calm Calm - 0.01 in   Drizzle
8:55 PM 38.3 °F - 37.6 °F 97% 29.87 in 2.0 mi Calm Calm - 0.01 in   Overcast
9:15 PM 38.3 °F 35.9 °F 37.9 °F 99% 29.87 in 2.0 mi WSW 3.5 mph - N/A   Overcast
9:35 PM 38.3 °F 35.9 °F 37.8 °F 98% 29.86 in 2.0 mi WSW 3.5 mph - N/A   Overcast
10:15 PM 38.5 °F 35.0 °F 37.9 °F 98% 29.86 in 1.8 mi WSW 4.6 mph - N/A   Overcast
10:35 PM 38.7 °F 32.9 °F 38.3 °F 99% 29.85 in 2.0 mi West 8.1 mph - N/A   Overcast
10:55 PM 38.5 °F 34.1 °F 37.9 °F 98% 29.85 in 2.0 mi West 5.8 mph - N/A   Overcast
11:15 PM 38.3 °F 34.8 °F 37.9 °F 99% 29.84 in 2.5 mi West 4.6 mph - N/A   Overcast
11:35 PM 38.3 °F 33.2 °F 37.8 °F 98% 29.83 in 2.5 mi WNW 6.9 mph - N/A   Overcast
11:55 PM 38.1 °F 32.9 °F 37.4 °F 97% 29.82 in 3.0 mi West 6.9 mph - N/A   Overcast